Location: Newark
(41.8083°N, 72.2500°W)
Time: 19:44:59
(UTC+00:00)

Courier 1B - Pass Details

Date: 06 December 2021
Orbit: 962 x 1209 km, 28.3° (Epoch: 19 January)

Event Time Altitude Azimuth Distance (km) Brightness Sun altitude
Rises 19:01:26 0° 211° (SSW) 4,097 12.5 17.8°
Reaches altitude 10° 19:05:43 10° 190° (S) 3,119 11.6 17.3°
Maximum altitude 19:09:52 15° 158° (SSE) 2,706 10.4 16.9°
Drops below altitude 10° 19:13:57 10° 125° (SE) 3,060 10.1 16.4°
Sets 19:18:04 0° 104° (ESE) 3,978 10.5 16.0°
